Home > Weather > Koblenz > Past weeks

Flag for Germany Weather for the Past 2 Weeks in Koblenz, Rhineland-Palatinate, Germany

Now
41 °F

Quite cool.


Feels Like: 33 °F
Forecast: 41 / 49 °F
Wind: 16 mph from Southwest

Location: Buechel

Current Time: Feb 8, 2016 at 4:32:36 PM

Latest Report: Feb 8, 2016 at 3:20 PM


Visibility: N/A

Pressure: 29.39 "Hg

Humidity: 87%

Dew point: 37 °F

Location of KoblenzLocation

Historic Weather in Koblenz — Graph

°F

Koblenz Temperature Yesterday

Maximum temperature yesterday: 48 °F (at 5:20 AM)
Minimum temperature yesterday: 39 °F (at 6:20 PM)
Average temperature yesterday: 43 °F

High & Low Weather Summary for the Past Weeks

 TemperatureHumidityPressure
High52 °F (Jan 25, 2:20 PM)100% (Jan 24, 4:20 PM)30.42 "Hg (Jan 24, 4:20 PM)
Low32 °F (Jan 29, 12:20 AM)58% (Jan 25, 2:20 PM)29.36 "Hg (Feb 8, 8:20 AM)
Average41 °F89%30.05 "Hg
* Reported Jan 24 3:20 PM — Feb 8 3:20 PM, Koblenz, Weather by CustomWeather, © 2016

Note: Actual official high and low records may vary slightly from our data, if they occured in-between our weather recording intervals... More about our weather records

Advertising

Koblenz Weather History for the Previous 24 Hours

 ConditionsComfort  
Time TempWeatherWind HumidityBarometerVisibility
3:20 PM
Mon, Feb 8
41 °FQuite cool.16 mph87%29.39 "HgN/A
2:20 PM41 °FQuite cool.15 mph87%29.36 "HgN/A
1:20 PM39 °FChilly.13 mph93%29.36 "Hg2 mi
12:20 PM39 °FChilly.10 mph93%29.39 "Hg1 mi
11:20 AM41 °FQuite cool.20 mph100%29.36 "Hg1 mi
10:20 AM41 °FQuite cool.18 mph93%29.39 "Hg1 mi
9:20 AM43 °FQuite cool.32 mph93%29.36 "Hg0 mi
8:20 AM43 °FQuite cool.28 mph93%29.36 "Hg0 mi
7:20 AM41 °FQuite cool.23 mph93%29.39 "Hg1 mi
6:20 AM39 °FChilly.25 mph93%29.42 "Hg0 mi
5:20 AM39 °FChilly.25 mph93%29.45 "Hg1 mi
4:20 AM39 °FChilly.23 mph87%29.50 "Hg1 mi
3:20 AM39 °FChilly.23 mph87%29.53 "Hg3 mi
2:20 AM39 °FChilly.22 mph81%29.56 "HgN/A
1:20 AM39 °FChilly.18 mph81%29.59 "HgN/A
12:20 AM39 °FChilly.20 mph81%29.65 "HgN/A
11:20 PM
Sun, Feb 7
39 °FChilly.16 mph81%29.65 "HgN/A
10:20 PM39 °FChilly.17 mph81%29.68 "HgN/A
9:20 PM39 °FChilly.17 mph81%29.68 "HgN/A
8:20 PM39 °FChilly.14 mph81%29.68 "HgN/A
7:20 PM39 °FChilly.15 mph81%29.68 "HgN/A
6:20 PM39 °FChilly.12 mph87%29.68 "HgN/A
5:20 PM43 °FQuite cool.15 mph71%29.65 "HgN/A
4:20 PM43 °FQuite cool.13 mph71%29.65 "HgN/A
Weather by CustomWeather, © 2016

See weather overviewHow to use our weather pages